TimePDT,TemperatureF,Dew PointF,Humidity,Sea Level PressureIn,VisibilityMPH,Wind Direction,Wind SpeedMPH,Gust SpeedMPH,PrecipitationIn,Events,Conditions,WindDirDegrees,DateUTC
12:54 AM,55.9,48.9,77,30.16,10.0,South,5.8,-,N/A,,Clear,190,2013-06-17 07:54:00
1:54 AM,54.0,48.0,80,30.15,10.0,South,4.6,-,N/A,,Clear,180,2013-06-17 08:54:00
2:45 AM,53.6,50.0,88,30.12,10.0,SSW,8.1,-,N/A,,Scattered Clouds,200,2013-06-17 09:45:00
2:54 AM,55.0,50.0,83,30.15,10.0,SW,6.9,-,N/A,,Mostly Cloudy,220,2013-06-17 09:54:00
3:54 AM,54.0,51.1,90,30.15,10.0,SSW,6.9,-,N/A,,Overcast,210,2013-06-17 10:54:00
4:54 AM,54.0,51.1,90,30.15,10.0,SW,5.8,-,N/A,,Overcast,230,2013-06-17 11:54:00
5:54 AM,54.0,51.1,90,30.16,10.0,WSW,5.8,-,N/A,,Overcast,240,2013-06-17 12:54:00
6:54 AM,54.0,51.1,90,30.16,10.0,SSW,4.6,-,N/A,,Overcast,200,2013-06-17 13:54:00
7:54 AM,55.9,51.1,84,30.15,10.0,SW,4.6,-,N/A,,Mostly Cloudy,230,2013-06-17 14:54:00
8:10 AM,57.2,51.8,82,30.12,10.0,SW,6.9,-,N/A,,Scattered Clouds,220,2013-06-17 15:10:00
8:54 AM,59.0,52.0,78,30.16,10.0,WNW,8.1,-,N/A,,Scattered Clouds,290,2013-06-17 15:54:00
9:54 AM,59.0,51.1,75,30.15,10.0,WNW,8.1,-,N/A,,Partly Cloudy,290,2013-06-17 16:54:00
10:54 AM,61.0,52.0,72,30.15,10.0,WNW,10.4,-,N/A,,Clear,290,2013-06-17 17:54:00
11:54 AM,64.0,53.1,67,30.17,10.0,WNW,10.4,-,N/A,,Clear,290,2013-06-17 18:54:00
12:54 PM,64.0,53.1,67,30.17,10.0,West,10.4,20.7,N/A,,Clear,270,2013-06-17 19:54:00
1:54 PM,64.9,54.0,68,30.17,10.0,WSW,10.4,19.6,N/A,,Partly Cloudy,250,2013-06-17 20:54:00
2:54 PM,68.0,54.0,61,30.16,10.0,West,12.7,18.4,N/A,,Scattered Clouds,280,2013-06-17 21:54:00
3:54 PM,66.0,54.0,65,30.15,10.0,WSW,18.4,24.2,N/A,,Clear,250,2013-06-17 22:54:00
4:54 PM,64.9,54.0,68,30.14,10.0,SW,8.1,19.6,N/A,,Scattered Clouds,230,2013-06-17 23:54:00
5:08 PM,64.4,53.6,68,30.10,10.0,Variable,6.9,-,N/A,,Mostly Cloudy,0,2013-06-18 00:08:00
5:32 PM,66.2,53.6,64,30.10,10.0,SW,13.8,20.7,N/A,,Scattered Clouds,220,2013-06-18 00:32:00
5:54 PM,64.9,54.0,68,30.13,10.0,Variable,6.9,17.3,N/A,,Partly Cloudy,0,2013-06-18 00:54:00
6:54 PM,64.9,53.1,65,30.12,10.0,Calm,Calm,-,N/A,,Scattered Clouds,0,2013-06-18 01:54:00
7:54 PM,62.1,53.1,72,30.12,10.0,South,5.8,-,N/A,,Scattered Clouds,190,2013-06-18 02:54:00
8:54 PM,60.1,53.1,78,30.12,10.0,South,3.5,-,N/A,,Mostly Cloudy,190,2013-06-18 03:54:00
9:20 PM,60.8,53.6,77,30.09,10.0,Variable,6.9,-,N/A,,Scattered Clouds,0,2013-06-18 04:20:00
9:51 PM,57.2,53.6,88,30.09,10.0,West,3.5,-,N/A,,Mostly Cloudy,260,2013-06-18 04:51:00
9:54 PM,57.9,53.1,84,30.13,10.0,Calm,Calm,-,N/A,,Mostly Cloudy,0,2013-06-18 04:54:00
10:16 PM,-9999,-9999,N/A,30.09,10.0,Calm,Calm,-,N/A,,Scattered Clouds,0,2013-06-18 05:16:00
10:24 PM,57.2,53.6,88,30.10,10.0,Calm,Calm,-,N/A,,Mostly Cloudy,0,2013-06-18 05:24:00
10:54 PM,57.9,53.1,84,30.13,10.0,WSW,5.8,-,N/A,,Mostly Cloudy,240,2013-06-18 05:54:00
11:17 PM,57.2,53.6,88,30.09,10.0,West,4.6,-,N/A,,Overcast,280,2013-06-18 06:17:00
11:54 PM,57.9,53.1,84,30.12,10.0,Variable,5.8,-,N/A,,Overcast,0,2013-06-18 06:54:00